BESSA

导读

目前公开可查询的信息中,暂未获取到NORAD编号68836、名称为BESSA的卫星的明确权威参数:NORAD编号是北美防空司令部为在轨空间物体分配的唯一标识,该编号对应的卫星详细信息尚未在公开渠道披露,其发射主体、任务定位、轨道参数、运行状态等核心内容暂无法核实。若该卫星为近年新发射或涉密载荷,相关信息需待官方发布后才能进一步梳理形成完整摘要。

Basic Information
目录编号:
68836
目录名称:
BESSA
国际标识:
2026-067CX
轨道中心:
EARTH
卫星名称:
BESSA
卫星全名:
BESSA
卫星状态:
在轨 (已飞行158 天)
发射日期:
2026-03-30 UTC
国别 :
(PT)
星等 :
--
Orbit Information
数据来源 国际轨道数据
星历时间: 2026-09-03T16:02:59+0800
1天前
查看轨道信息
半长轴: 6886.074km
偏心率: 0.0012435
轨道倾角: 97.460°
近地点辐角 99.099°
升交点赤经 203.775°
平近点角 261.166°
近地点: 499.374km
远地点: 516.5km
周期: 94.780分钟
每日圈数: 15.19306
Detailed Information
使用方式:
暂无
2D Orbit Map
3D Orbit Map
Orbit Altitude Analysis Chart
Orbit Inclination Analysis Chart
Orbit Comprehensive Analysis Chart
View Comprehensive Chart
Conjunction Data List
Event ID Objects TCA Miss Dist (km) Collision Risk Probability Collision Risk Index (CRI) Action
CDM_260905-060906-312506-883622
BESSA (68836)
2026-09-05T
06:09:01+0000
0.393 km
远距离
3.335643E-4 高风险 0.85
CDM_260905-174605-695606-883621
BESSA (68836)
2026-09-05T
17:46:11+0000
1.792 km
极远距离
3.911577E-6 低风险 0.47
CDM_260905-161105-695606-883621
BESSA (68836)
2026-09-05T
16:11:19+0000
1.876 km
极远距离
3.432738E-6 低风险 0.46
CDM_260906-005305-695606-883621
BESSA (68836)
2026-09-06T
00:53:05+0000
2.775 km
极远距离
1.499782E-6 低风险 0.39
CDM_260905-153806-312606-883621
BESSA (68836)
2026-09-05T
15:38:00+0000
2.930 km
极远距离
1.376077E-6 低风险 0.38